Current Weather Conditions: station 62114

sailwx.info

See reports from other nearby stations

no recent reports received from weather station ID 62114

Tides Pressure Air temp Water temp Dewpoint Dewpoint depression Visibility Wind speed Wind direction Waves Ship positions
date/time (UTC)wind fromknots sea level pressurealtimeterstation pressurevisibilityair tempwater tempwave heightnotes
2016-Jul-27 15:00 240 17 13.9
2016-Jul-27 14:00 260 18 14.0
2016-Jul-27 13:00 240 12 13.6
2016-Jul-27 12:00 260 8 13.6
2016-Jul-27 11:00 260 7 13.8
2016-Jul-27 10:00 280 7 13.7
2016-Jul-27 09:00 280 8 13.8
2016-Jul-27 08:00 290 6 15.1
2016-Jul-27 07:00 280 5 13.6
2016-Jul-27 06:00 270 9 13.0
2016-Jul-27 05:00 270 10 13.1
2016-Jul-27 04:00 260 11 13.3
2016-Jul-27 03:00 260 9 13.5
2016-Jul-27 02:00 250 7 13.7
2016-Jul-27 01:00 280 7 14.3
2016-Jul-27 00:00 300 7 14.6
2016-Jul-26 23:00 200 6 14.0
2016-Jul-26 22:00 210 10 14.3
2016-Jul-26 21:00 200 11 14.7
2016-Jul-26 20:00 190 11 14.7
2016-Jul-26 19:00 190 9 14.5
2016-Jul-26 18:00 200 10 14.6
2016-Jul-26 17:00 190 11 14.8
2016-Jul-26 16:00 200 11 14.9
2016-Jul-26 15:00 190 9 15.0
2016-Jul-26 14:00 210 9 14.6
2016-Jul-26 13:00 230 9 14.0
2016-Jul-26 12:00 260 9 13.9
2016-Jul-26 11:00 250 11 13.8
2016-Jul-26 10:00 250 12 13.8
2016-Jul-26 09:00 250 12 13.8
2016-Jul-26 08:00 250 12 13.8
2016-Jul-26 07:00 260 14 13.6
2016-Jul-26 06:00 260 13 13.7
2016-Jul-26 05:00 270 13 13.7
2016-Jul-26 04:00 260 12 13.8
2016-Jul-26 03:00 260 7 13.7
2016-Jul-26 02:00 280 6 14.6
2016-Jul-26 01:00 280 7 14.4
2016-Jul-26 00:00 260 6 14.1
2016-Jul-25 23:00 270 7 14.1
2016-Jul-25 22:00 280 8 14.1
2016-Jul-25 21:00 280 9 14.2
2016-Jul-25 20:00 270 11 14.7
2016-Jul-25 19:00 260 11 15.3
2016-Jul-25 18:00 250 12 14.8
2016-Jul-25 17:00 220 11 15.0